Погода Старая Русса

Погода Старая Русса : погода сейчас, прогноз погоды и архив. Всё, что Вы хотите узнать о погоде Старая Русса!

Хотите узнать прогноз погоды Старая Русса? Тогда Вам сюда: Погода Старая Русса

Поиск расширенной информации на нашем сайте:

Другие новости

Новости СМИ2

Главная страница сайта

Новости сайта

03.07.2017

Напоминаем, что на нашем специализированном сайте Метеоцентр.Азия вы можете получить высокодетализированные автоматические прогнозы погоды по пунктам России, СНГ и мира в авиационном формате (включающие направление и скорость ветра, видимость, явления погоды, количество и форму облачности, нижнюю и верхнюю границу облачности).

Рекомендуем: Смотрите подробности грузоперевозки по европе у нас.

Погода Старая Русса - сегодня

Время (UTC), дата Ветер
(°,м/с) 
Видим.   Явления Облачность Т
(°С)
Тd
(°С)
f(%) Тe
(°С)
Pmin
(гПа)
dP
(гПа)
Po
(мм)
O2
(г/м3)
Тmin Tmax R s Состояние
почвы
15 19.07.17 250 (З) 20000 м  {ливн. осадки}  3/3 600 м 
[Cu med, cong]
+20.7 +7.8 43 +21  1014.2  -0.8  758  283      0.0     
18 19.07.17 тихо ()   20000 м  {ливн. осадки}  9/3 600 м кучево-дожд., средняя 
[Cb cap|Ac und]
+14.6 +10.2 75 +16  1014.9  0.7  759  288    +21.2  0.0     
21 19.07.17 180 (Ю) 20000 м    4/4 600 м 
[Sc]
+12.6 +10.6 88 +16  1014.4  -0.5  759  290           
00 20.07.17 180 (Ю) 20000 м  в посл. час ливневой дождь  5/1 600 м кучево-дожд., средняя 
[Cb cap|Ac trans]
+11.3 +10.7 96 +14  1014.2  -0.3  758  291           
03 20.07.17 210 (ЮЗ) 20000 м    3/0 средняя 
[Ac cast]
+11 +10.6 97 +14  1014  -0.2  758  292  +10.2    0.8     
06 20.07.17 250 (З) 20000 м    8/3 600 м средняя 
[Cu med, cong|Ac trans]
+16.1 +12.6 80 +22  1013.9  758  286  +10.2    0.8    влажная 
09 20.07.17 270 (З) 20000 м    8/5 600 м средняя 
[Cu med, cong|Ac trans]
+17.5 +10.3 63 +19  1013.7  -0.2  758  285           
12 20.07.17 350 (С) 20000 м    8/6 600 м верхняя 
[Cu med, cong|Ci fib]
+18.3 +10.1 59 +20  1012.6  -1.1  757  284           
15 20.07.17 340 (С) 20000 м    9/3 600 м кучево-дожд., средняя 
[Cb cap|Ac trans]
+17.3 +10.7 65 +21  1012.5  0.1  757  285           
18 20.07.17 330 (СЗ) 20000 м    9/1 600 м кучево-дожд., средняя 
[Cb cap|Ac trans]
+14.7 +12.1 84 +20  1012.8  0.3  757  287    +19.6       
21 20.07.17 290 (З) 20000 м  дымка  9/0 средняя 
[Ac trans]
+12.7 +11.2 91 +17  1013.2  0.3  758  290           
00 21.07.17 290 (З) 20000 м    9/0 средняя 
[Ac trans]
+10.7 +10 95 +13  1013.5  0.3  758  292           
03 21.07.17 240 (ЮЗ) 4000 м  дымка  9/1 300 м кучево-дожд., средняя 
[Cb calv|Ac und]
+11 +10.5 97 +14  1013.8  0.4  758  292  +10.2         
06 21.07.17 320 (СЗ) 20000 м    8/5 300 м кучево-дожд., средняя 
[Cb cap|Ac trans]
+14.8 +12.6 87 +21  1014.5  0.8  759  288  +10.2        влажная 
09 21.07.17 290 (З) 20000 м    8/8 300 м кучево-дожд. 
[Cb cap]
+15.5 +11.5 77 +19  1015.3  0.8  759  287           
12 21.07.17 350 (С) 20000 м  {ливн. осадки}  8/3 300 м кучево-дожд., средняя 
[Cb cap|Ac trans]
+19.8 +11.5 59 +24  1015.1  -0.2  759  283           
15 21.07.17 340 (С) 20000 м    6/3 300 м кучево-дожд., средняя 
[Cb cap|Ac trans]
+19.1 +9.8 55 +22  1014.9  -0.2  759  284      0.0     
18 21.07.17 310 (СЗ) 20000 м    8/6 300 м кучево-дожд., средняя 
[Cb cap|Ac trans]
+15.4 +11.5 78 +20  1015.7  -0.2  760  288    +21.4  0.0     
21 21.07.17 250 (З) 4000 м  дымка  3/0 средняя 
[Ac trans]
+10.1 +9.6 97 +11  1016  0.2  760  293           
00 22.07.17 280 (З) 4000 м  дымка  ясно 
+8.7 +8.4 98 +10  1016.6  0.6  760  295           
03 22.07.17 310 (СЗ) 20000 м    ясно 
+10.4 +10.3 99 +13  1016.9  0.6  760  293  +7.8         
06 22.07.17 360 (С) 20000 м    ясно 
+17.8 +13.1 74 +24  1017.2  0.4  761  285  +7.8        влажная 
09 22.07.17 020 (С) 20000 м    4/4 600 м 
[Cu med, cong]
+19.8 +11.8 60 +24  1017.5  0.3  761  284           
12 22.07.17 350 (С) 20000 м    3/3 300 м 
[Cu med, cong]
+21.6 +10.3 49 +23  1016.7  -0.8  760  282           
15 22.07.17 030 (СВ) 10 км  гроза, ливневой дождь  9/9 300 м кучево-дожд. 
[Cb calv]
+16.2 +12.1 77 +22  1017.3  0.5  761  287      0.5     
Время (UTC), дата Ветер
(°,м/с) 
Видим.   Явления Облачность Т
(°С)
Тd
(°С)
f(%) Тe
(°С)
Pmin
(гПа)
dP
(гПа)
Po
(мм)
O2
(г/м3)
Тmin Tmax R s Состояние
почвы

Для получения пояснительной информации подведите курсор к названию столбца.

ПОГОДА Старая Русса - архив

Всё, что Вы хотите узнать о погоде Старая Русса - удобно и подробно!

Выберите нужную дату (начиная с 1 января 2015* года) и нажмите кнопку "Найти".
Будут отображены архивные сводки погоды по пункту Старая Русса, начиная с указанной даты.


Отображать данные в формате CSV (для использования в таблицах Excel)


Внимание! Наш архив погоды предназначен исключительно для личного некоммерческого использования в познавательных целях. Если Вам необходимы официальные справки о состоянии погоды (для производственных, юридических, коммерческих и т.п. целей), обращайтесь в органы Росгидромета.

*Примечание: данная дата относится к архиву по метеостанциям СССР (Россия, СНГ, Балтия).
Архив по метеостанциям Зарубежной Европы и Азии (кроме Китая) хранится 10 дней, по другим регионам земного шара (Китай, Африка, Америка, Австралия, Океания) - 1 день.

Старая Русса - район местоположения метеостанции


Название, широта, долгота, высота метеостанции:
Старая Русса 58°ш. 31.3°д. 25 м над ур. моря [Российская Федерация]

Дополнительная информация

В oтличие oт бoльшинства пoгoдных сайтoв мы публикуем пoдрoбную метеoинфoрмацию в детальнoм прoфессиoнальнoм фoрмате.

Характеристики температуры и влажнoсти вoздуха измеряются на высoте 2 м в тени вдали oт зданий и деревьев.
Скoрoсть ветра измеряется на высoте 10 м (на урoвне рoста челoвека скoрoсть ветра ниже в 1.5-2 раза). Если метеoстанция нахoдится в гoрoде или в лесу, тo скoрoсть ветра занижена на 2-4 м/с пo сравнению с oткрытым местoм. Скoрoсть ветра над акватoриями крупных рек и oзёр, а также на вершинах хoлмoв на 2-5 м/с выше, чем в oбычных услoвиях.
Атмoсфернoе давление в разных тoчках местнoсти мoжет значительнo oтличаться oт давления на метеoстанции, в зависимoсти oт услoвий рельефа (при пoдъёме на 10 м давление пoнижается примернo на 1 мм рт.ст.).